DW7955 Weather Reports


Display with metric or nautical units.
time (UTC)temp
F
wind
direction
speed
MPH
gust
MPH
rain 1hr
in
rain 24hr
in
rain mn
in
humidity
%
barometer
mb
20260509073027 53 125 0.0 0.0 0.00 0.00 0.00 58 1007.8
20260509071526 53 125 0.0 0.0 0.00 0.00 0.00 58 1007.7
20260509070023 54 125 0.0 2.0 0.00 0.00 0.00 57 1007.9
20260509064521 54 125 0.0 3.0 0.00 0.00 0.00 58 1008.1
20260509063020 54 125 1.0 3.0 0.00 0.00 0.00 58 1008.2
20260509061521 54 125 2.0 3.0 0.00 0.00 0.00 57 1008.2
20260509060016 54 125 0.0 0.0 0.00 0.00 0.00 56 1008.2
20260509054515 56 125 0.0 1.0 0.00 0.00 0.00 54 1008.3
20260509053015 55 125 0.0 0.0 0.00 0.00 0.00 54 1008.3
20260509051514 56 125 0.0 0.0 0.00 0.00 0.00 53 1008.5
20260509050014 57 125 0.0 0.0 0.00 0.00 0.00 51 1008.5
20260509044513 60 125 0.0 0.0 0.00 0.00 0.00 47 1008.5
20260509043013 61 117 0.0 0.0 0.00 0.00 0.00 43 1008.4
20260509041515 62 113 2.0 3.0 0.00 0.00 0.00 41 1008.4
20260509040012 63 93 2.0 8.0 0.00 0.00 0.00 40 1008.1
20260509034510 63 109 3.0 9.0 0.00 0.00 0.00 39 1007.8
20260509033010 64 97 5.0 9.0 0.00 0.00 0.00 38 1007.7
20260509031510 64 53 6.0 10.0 0.00 0.00 0.00 38 1007.6
20260509030010 65 67 6.0 10.0 0.00 0.00 0.00 37 1007.2
20260509024512 65 57 6.0 10.0 0.00 0.00 0.00 37 1007.1
20260509023008 66 53 6.0 10.0 0.00 0.00 0.00 36 1007.0
20260509021508 66 48 6.0 11.0 0.00 0.00 0.00 35 1006.6
20260509020008 67 61 9.0 15.0 0.00 0.00 0.00 34 1006.3
20260509014511 68 51 9.0 12.0 0.00 0.00 0.00 33 1006.2
20260509013007 69 45 6.0 13.0 0.00 0.00 0.00 30 1005.8
20260509011507 70 94 6.0 12.0 0.00 0.00 0.00 29 1005.4
20260509010015 70 79 7.0 10.0 0.00 0.00 0.00 29 1005.6
20260509004510 71 70 10.0 15.0 0.00 0.00 0.00 29 1005.7
20260509003005 70 82 6.0 9.0 0.00 0.00 0.00 29 1005.4
20260509001505 70 77 6.0 11.0 0.00 0.00 0.00 30 1005.5
20260509000007 71 67 10.0 14.0 0.00 0.00 0.00 28 1005.5
20260508234510 71 88 9.0 14.0 0.00 0.00 0.00 28 1005.4
20260508233003 72 86 9.0 16.0 0.00 0.00 0.00 28 1005.2
20260508231503 72 61 11.0 18.0 0.00 0.00 0.00 28 1005.2
20260508230002 73 144 7.0 14.0 0.00 0.00 0.00 28 1005.2
20260508224559 72 82 4.0 15.0 0.00 0.00 0.00 30 1005.4
20260508223058 72 61 4.0 14.0 0.00 0.00 0.00 29 1005.6
20260508221556 71 110 7.0 15.0 0.00 0.00 0.00 30 1005.7
20260508220057 71 116 8.0 17.0 0.00 0.00 0.00 30 1005.7
20260508214554 71 97 8.0 13.0 0.00 0.00 0.00 32 1005.9
20260508213052 71 70 3.0 12.0 0.00 0.00 0.00 32 1005.9
20260508211548 71 51 7.0 11.0 0.00 0.00 0.00 32 1006.1
20260508210046 70 34 6.0 18.0 0.00 0.00 0.00 32 1006.3
20260508204547 70 161 6.0 13.0 0.00 0.00 0.00 32 1006.5
20260508203042 70 80 6.0 13.0 0.00 0.00 0.00 31 1006.7
20260508201540 69 113 4.0 10.0 0.00 0.00 0.00 34 1006.7
20260508200050 69 166 5.0 13.0 0.00 0.00 0.00 32 1007.0
20260508194536 68 176 2.0 10.0 0.00 0.00 0.00 35 1007.1
20260508193034 67 76 6.0 17.0 0.00 0.00 0.00 37 1007.1
20260508191532 67 65 6.0 14.0 0.00 0.00 0.00 38 1007.3
20260508190036 67 33 6.0 13.0 0.00 0.00 0.00 38 1007.5
20260508184533 66 75 6.0 11.0 0.00 0.00 0.00 38 1007.7
20260508183027 65 53 6.0 16.0 0.00 0.00 0.00 41 1007.9
20260508181522 65 66 7.0 12.0 0.00 0.00 0.00 42 1008.1
20260508180019 65 116 5.0 11.0 0.00 0.00 0.00 43 1008.3
20260508174522 64 140 7.0 13.0 0.00 0.00 0.00 41 1008.5
20260508173014 63 50 10.0 15.0 0.00 0.00 0.00 43 1008.8
20260508171512 64 143 6.0 12.0 0.00 0.00 0.00 43 1008.8
20260508170010 63 45 8.0 15.0 0.00 0.00 0.00 44 1009.1
20260508164512 62 78 9.0 17.0 0.00 0.00 0.00 44 1009.2
20260508163006 62 50 11.0 17.0 0.00 0.00 0.00 45 1009.2
20260508161510 61 27 9.0 16.0 0.00 0.00 0.00 46 1009.3
20260508160005 61 75 10.0 15.0 0.00 0.00 0.00 48 1009.5
20260508154501 60 34 9.0 16.0 0.00 0.00 0.00 50 1009.4
20260508153100 60 56 9.0 15.0 0.00 0.00 0.00 48 1009.5
20260508151558 60 47 8.0 17.0 0.00 0.00 0.00 51 1009.6
20260508150056 59 20 8.0 13.0 0.00 0.00 0.00 50 1009.9
20260508144555 58 246 3.0 7.0 0.00 0.00 0.00 51 1009.1
20260508143054 57 144 0.0 3.0 0.00 0.00 0.00 57 1009.3
20260508141554 54 237 1.0 5.0 0.00 0.00 0.00 63 1009.3
20260508140052 53 237 1.0 4.0 0.00 0.00 0.00 64 1009.5
20260508134550 52 326 1.0 3.0 0.00 0.00 0.00 64 1009.6
20260508133048 52 326 0.0 4.0 0.00 0.00 0.00 62 1009.7
20260508131549 51 326 0.0 4.0 0.00 0.00 0.00 64 1009.7
20260508130105 49 185 0.0 0.0 0.00 0.00 0.00 71 1009.7
20260508124541 47 185 0.0 0.0 0.00 0.00 0.00 72 1009.6
20260508123040 46 184 0.0 0.0 0.00 0.00 0.00 73 1009.5
20260508121547 46 184 0.0 0.0 0.00 0.00 0.00 74 1009.3
20260508120039 45 184 0.0 0.0 0.00 0.00 0.00 74 1009.3
20260508114536 46 185 0.0 2.0 0.00 0.00 0.00 73 1009.1
20260508113041 47 171 0.0 1.0 0.00 0.00 0.00 71 1009.1
20260508111532 48 171 0.0 0.0 0.00 0.00 0.00 69 1009.1
20260508110031 48 171 3.0 5.0 0.00 0.00 0.00 69 1009.0
20260508104543 48 16 0.0 0.0 0.00 0.00 0.00 71 1009.1
20260508103035 48 16 0.0 0.0 0.00 0.00 0.00 72 1008.9
20260508101527 48 16 0.0 0.0 0.00 0.00 0.00 69 1009.2
20260508100023 49 16 0.0 3.0 0.00 0.00 0.00 67 1009.4
20260508094519 50 16 0.0 0.0 0.00 0.00 0.00 64 1009.2
20260508093018 50 16 0.0 0.0 0.00 0.00 0.00 63 1009.2
20260508091516 52 16 0.0 0.0 0.00 0.00 0.00 60 1009.2
20260508090015 53 16 0.0 0.0 0.00 0.00 0.00 59 1009.1
20260508084507 54 16 0.0 0.0 0.00 0.00 0.00 57 1009.3
20260508083002 56 16 0.0 2.0 0.00 0.00 0.00 54 1009.2
20260508081602 57 351 2.0 6.0 0.00 0.00 0.00 48 1009.4
20260508080111 57 40 3.0 8.0 0.00 0.00 0.00 48 1009.4
20260508074557 57 20 5.0 9.0 0.00 0.00 0.00 48 1009.3